GENERAL FILE 100MB FileUploader
100MBまでの圧縮ファイル、画像ファイル、テキストファイルなどの一般的な拡張子のファイルのアップロードができます。
ご要望があれば対応拡張子の追加もできますで、ご希望があればお問い合わせ下さい。
(サーバーの動作に悪影響を及ぼす恐れのある拡張子は追加できません)
ファイル配布などにご自由に使ってください。
ダウンロードパスは必須項目ですので必ず指定する必要があります。
ダウンロードパス以外は任意設定ですので、必要なければ空欄でもOKです。
ファイルの中身に関しては管理人は責任を持ちませんので、利用者各自の良識に任せます。
LINKS

パスワード不要の画像ファイルアップロードは画像専用FileUploaderをご利用下さい。
100MB以上のファイルアップロードは圧縮ファイル専用 200MB FileUploaderをご利用下さい。
200-500MBの圧縮ファイルのファイルアップロードは圧縮ファイル専用 500MB FileUploaderをご利用下さい。
500-1GBの圧縮ファイルのファイルアップロードは圧縮ファイル専用 1GB FileUploaderをご利用下さい。

削除依頼、問い合わせ、相互リンク、広告掲載依頼は info@filescase.com にお問い合わせ下さい。

PV
ファイル:  ダウンロードパス:  削除パス:
 Comment:
 ダウンロード回数:  ダウンロード時間(分):


FILECommentFile sizeUP時間ORIGINAL削除制限
GEN100MB7341.zip[Password Settings] 29.7MB17/05/22(月),23:33:04SOL20170522.zipUnlimited
GEN100MB7340.7z[Password Settings] 6.7MB17/05/22(月),16:19:4412yv.7zUnlimited
GEN100MB7339.zip[Password Settings] 10倍スケール銃器 パス:11114KB17/05/22(月),10:48:40NF AA-12.zipUnlimited
GEN100MB7337.zip[Password Settings] 現在生産or改修が済んだMTのパックです3.1MB17/05/22(月),00:27:51現行MT+αパック(仮).zipUnlimited
GEN100MB7336.zip[Password Settings] sg14.3MB17/05/21(日),22:20:483564sogawa56su4.zipUnlimited
GEN100MB7335.zip[Password Settings] いろいろ5.6MB17/05/21(日),17:36:05いろいろ.zipUnlimited
GEN100MB7333.zip[Password Settings] EZ-Racer用コース&パーツ passはEZR52KB17/05/21(日),11:59:26EZ-Racer MAP.zipUnlimited
GEN100MB7331.zip[Password Settings] sg13.1MB17/05/21(日),02:41:443564sogawa56su4.zipUnlimited
GEN100MB7330.zip[Password Settings] 1KB17/05/21(日),01:04:18Perpetual engine.zipUnlimited
GEN100MB7328.zip[Password Settings] ArmoriserVer7セット、PASS111133KB17/05/20(土),23:49:58Armorizer07.zipUnlimited
GEN100MB7327.zip[Password Settings] ArmoriserVer7test33KB17/05/20(土),23:23:03Armorizer07.zipUnlimited
GEN100MB7326.zip[Password Settings] sg13.3MB17/05/20(土),00:29:513564sogawa56su4.zipUnlimited
GEN100MB7325.zip[Password Settings] KF3の素体です。15KB17/05/19(金),21:33:31KF3 素体+おまけ.zipUnlimited
GEN100MB7324.7z[Password Settings] 30.7MB17/05/19(金),15:47:55SPONGE.7zUnlimited
GEN100MB7323.7z[Password Settings] 3.5MB17/05/19(金),15:15:29101010.7zUnlimited
GEN100MB7322.7z[Password Settings] 1.9MB17/05/19(金),14:12:22Ad303.7zUnlimited
GEN100MB7321.7z[Password Settings] 5.9MB17/05/19(金),14:04:16peeunderw303.7zUnlimited
GEN100MB7320.zip[Password Settings] sg9.9MB17/05/18(木),22:40:273564sogawa56su4.zipUnlimited
GEN100MB7319.zip[Password Settings] 自動標的2種類[PW:1111]33KB17/05/18(木),22:36:09Kinetic_targetsとFiring range.zipUnlimited
GEN100MB7318.7z[Password Settings] 76.6MB17/05/18(木),20:50:08ICEBATH-teaser.7zUnlimited
GEN100MB7317.zip[Password Settings] 某戦闘部屋のレギュ 参考に612B17/05/18(木),19:33:20戦闘レギュレーション.zipUnlimited
GEN100MB7316.7z[Password Settings] 37.0MB17/05/18(木),19:18:09wcwcwc.7zUnlimited
GEN100MB7315.7z[Password Settings] 33.0MB17/05/18(木),18:58:40rus876633.7zUnlimited
GEN100MB7314.7z[Password Settings] 4.9MB17/05/18(木),18:56:12over334.7zUnlimited
GEN100MB7313.7z[Password Settings] 11.2MB17/05/18(木),18:52:50B7676.7zUnlimited
GEN100MB7312.7z[Password Settings] 2.0MB17/05/18(木),18:53:17mymymy.7zUnlimited
GEN100MB7311.7z[Password Settings] 7.7MB17/05/18(木),18:50:14bo676767.7zUnlimited
GEN100MB7310.gif[Password Settings] 38.1MB17/05/18(木),11:29:49【プリウスPHV】スタイリング篇.gifUnlimited
GEN100MB7309.zip[Password Settings] いろいろ5.6MB17/05/18(木),08:30:19いろいろ.zipUnlimited
GEN100MB7308.zip[Password Settings] sg19.8MB17/05/18(木),01:51:543564sogawaFCIM.zipUnlimited
GEN100MB7307.7z[Password Settings] 32.2MB17/05/17(水),14:29:56bpv8.7zUnlimited
GEN100MB7306.7z[Password Settings] 11.8MB17/05/17(水),14:43:54bpv9.7zUnlimited
GEN100MB7305.7z[Password Settings] 32.2MB17/05/17(水),14:38:39bpv8.7zUnlimited
GEN100MB7304.7z[Password Settings] 3.7MB17/05/17(水),14:38:12bpv7.7zUnlimited
GEN100MB7303.jpg[Password Settings] 652KB17/05/17(水),14:32:261266027.jpgUnlimited
GEN100MB7302.7z[Password Settings] 8.7MB17/05/17(水),14:20:33bpv6.7zUnlimited
GEN100MB7301.7z[Password Settings] 3.7MB17/05/17(水),14:25:07bpv7.7zUnlimited
GEN100MB7300.7z[Password Settings] 11.1MB17/05/17(水),14:05:15bpv5.7zUnlimited
GEN100MB7299.7z[Password Settings] 7.5MB17/05/17(水),13:59:56bpv4.7zUnlimited
GEN100MB7298.7z[Password Settings] 4.8MB17/05/17(水),13:50:47bpv3.7zUnlimited
GEN100MB7297.7z[Password Settings] 4.2MB17/05/17(水),13:45:34bpv2.7zUnlimited
GEN100MB7296.7z[Password Settings] 5.7MB17/05/17(水),13:33:17bpv1.7zUnlimited
GEN100MB7295.gif[Password Settings] 39.4MB17/05/17(水),11:43:59石原さとみ出演 明治ガルボ 「すすめのポーズ 電話」篇 15秒.gifUnlimited
GEN100MB7294.gif[Password Settings] 37.3MB17/05/17(水),11:43:26石原さとみ出演 明治ガルボ 「すすめのポーズ ボクシング」篇 15秒.gifUnlimited
GEN100MB7293.gif[Password Settings] 40.8MB17/05/17(水),11:42:49石原さとみ出演 明治ガルボ 「すすめのポーズ コーヒー」篇 15秒.gifUnlimited
GEN100MB7291.zip[Password Settings] メラルー氏へ3.3MB17/05/17(水),05:24:07Machincraft Option.zipUnlimited
GEN100MB7290.zip[Password Settings] sg7.7MB17/05/16(火),23:33:163564sogawa56su4.zipUnlimited
GEN100MB7288.zip[Password Settings] ゼルト氏ヘ40KB17/05/16(火),20:24:56ウォーロック.zip1回
GEN100MB7287.zip[Password Settings] いろいろ115KB17/05/16(火),15:38:082017.zipUnlimited
GEN100MB7286.zip[Password Settings] 10倍スケール弾薬箱 パス11111KB17/05/16(火),01:11:0250 cal box.zipUnlimited
GEN100MB7285.zip[Password Settings] sg15.1MB17/05/16(火),00:24:413564sogawaSGI-IMS.zipUnlimited
GEN100MB7284.zip[Password Settings] 21.7MB17/05/15(月),23:35:47SOL20170515.zipUnlimited
GEN100MB7283.zip[Password Settings] STOPすると高速化13KB17/05/15(月),19:41:38trackertest.zipUnlimited
GEN100MB7282.7z[Password Settings] ナスチャ48.2MB17/05/15(月),18:20:17RLN.7zUnlimited
GEN100MB7281.zip[Password Settings] なかったので投下です772B17/05/15(月),18:44:16ATM-09-ST配布用.zipUnlimited
GEN100MB7279.7z[Password Settings] strawberries54.5MB17/05/15(月),13:36:51Its_Juge.7zUnlimited
GEN100MB7278.7z[Password Settings] 2.8MB17/05/15(月),13:04:27suddenreveal.7zUnlimited
GEN100MB7277.jpg[Password Settings] 54KB17/05/15(月),11:40:50pic065.jpgUnlimited
GEN100MB7276.gif[Password Settings] 40.7MB17/05/15(月),09:34:570.gifUnlimited
GEN100MB7275.7z[Password Settings] tb0169.3MB17/05/15(月),05:26:51tb01.7zUnlimited
GEN100MB7274.zip[Password Settings] sg16.6MB17/05/15(月),03:08:233564sogawa56su4.zipUnlimited
GEN100MB7273.zip[Password Settings] ソ連海軍7号計画艦隊水雷艇 111126.4MB17/05/14(日),18:06:147号計画艦隊水雷艇_GNEVNY.zipUnlimited
GEN100MB7272.zip[Password Settings] 現ミーティング規格にて試作した車両観賞用の線路1KB17/05/14(日),15:28:53観賞用線路.zipUnlimited
GEN100MB7271.rar[Password Settings] 7.1MB17/05/14(日),15:15:13Gabe.rarUnlimited
GEN100MB7270.zip[Password Settings] ArmoriserVer6セット修正PASS111134KB17/05/14(日),15:02:52Armorizer06.zipUnlimited
GEN100MB7268.7z[Password Settings] 23.7MB17/05/14(日),13:11:25psw7-9.7zUnlimited
GEN100MB7267.7z[Password Settings] 9.3MB17/05/14(日),13:06:41psw4-6.7zUnlimited
GEN100MB7266.7z[Password Settings] 8.9MB17/05/14(日),13:02:15psw1-3.7zUnlimited
GEN100MB7265.7z[Password Settings] 7.6MB17/05/14(日),12:53:49pps7-9.7zUnlimited
GEN100MB7264.7z[Password Settings] 4.3MB17/05/14(日),12:47:13pps4-6.7zUnlimited
GEN100MB7263.7z[Password Settings] 12.7MB17/05/14(日),12:37:05pps1-3.7zUnlimited
GEN100MB7262.7z[Password Settings] 81.7MB17/05/14(日),11:35:07special100.7zUnlimited
GEN100MB7261.zip[Password Settings] server60.2MB17/05/14(日),00:05:55mods - コピー.zipUnlimited
GEN100MB7260.rar[Password Settings] 多分サーブだと思うんですけど11KB17/05/13(土),20:21:24saab.rarUnlimited
GEN100MB7258.zip[Password Settings] 1KB17/05/13(土),11:50:49新しいフォルダー.zip1回
GEN100MB7257.jpg[Password Settings] 89KB17/05/13(土),11:33:18Vip0022_17.jpgUnlimited
GEN100MB7256.zip[Password Settings] 集会所65.5MB17/05/13(土),10:10:00mods.zipUnlimited
GEN100MB7255.7z[Password Settings] z064 fix85.4MB17/05/13(土),09:11:50z064.7zUnlimited
GEN100MB7254.7z[Password Settings] z16183.5MB17/05/13(土),08:15:50z161.7zUnlimited
GEN100MB7253.7z[Password Settings] z06485.4MB17/05/13(土),07:36:53z064.7zUnlimited
GEN100MB7252.zip[Password Settings] sg21.0MB17/05/13(土),00:54:403564sogawaFCIM.zipUnlimited
GEN100MB7251.zip[Password Settings] 239KB17/05/13(土),00:44:43新しいフォルダー.zip1回
GEN100MB7250.zip[Password Settings] いろいろ50KB17/05/12(金),19:56:20いろいろ.zipUnlimited
GEN100MB7249.zip[Password Settings] 50KB17/05/12(金),16:05:34新しいフォルダー.zip1回 or 20分
GEN100MB7248.7z[Password Settings] comrapb55.0MB17/05/12(金),04:32:23comrapb.7zUnlimited
GEN100MB7247.7z[Password Settings] 2b1311mif79.0MB17/05/12(金),01:53:142b1311mif.7zUnlimited
GEN100MB7246.zip[Password Settings] sg14.4MB17/05/11(木),22:32:123564sogawaIMS.zipUnlimited
GEN100MB7245.zip[Password Settings] 29KB17/05/11(木),22:23:33kozi.zip1回
GEN100MB7244.zip[Password Settings] 集会所57.2MB17/05/11(木),16:42:13mods.zipUnlimited
GEN100MB7242.7z[Password Settings] 10.8MB17/05/11(木),04:11:28thehappening.7zUnlimited
GEN100MB7241.7z[Password Settings] 2.8MB17/05/11(木),03:49:02cool2.7zUnlimited
GEN100MB7240.7z[Password Settings] 2.8MB17/05/11(木),03:44:07cool2.7zUnlimited
GEN100MB7239.7z[Password Settings] 31.6MB17/05/11(木),03:26:08latinoliterature.7zUnlimited
GEN100MB7238.zip[Password Settings] Armoriser06テスト用17KB17/05/11(木),02:36:49Armorizer05ST.zipUnlimited
GEN100MB7237.zip[Password Settings] sg13.9MB17/05/10(水),22:13:263564sogawaFC.zipUnlimited
GEN100MB7236.zip[Password Settings] ELFrame 1.1 PASS111123KB17/05/10(水),15:05:09ELFrame.zipUnlimited
GEN100MB7235.gif[Password Settings] 44.8MB17/05/10(水),08:51:160.gifUnlimited
GEN100MB7234.7z[Password Settings] 334KB17/05/10(水),05:46:25DSBed Un 2 (C).7zUnlimited
GEN100MB7232.zip[Password Settings] sg10.3MB17/05/09(火),21:59:573564sogawa56su4.zipUnlimited
GEN100MB7231.zip[Password Settings] 27KB17/05/09(火),16:21:031.zipUnlimited
GEN100MB7230.zip[Password Settings] ArmoriserVer5セット、PASS111132KB17/05/09(火),00:14:59Armorizer05.zipUnlimited
GEN100MB7228.zip[Password Settings] 26.0MB17/05/08(月),23:47:47SOL20170508.zipUnlimited
GEN100MB7227.zip[Password Settings] sg5.9MB17/05/08(月),21:15:543564sogawa56su4.zipUnlimited
GEN100MB7226.rar[Password Settings] 12.4MB17/05/08(月),12:42:1850.rarUnlimited
GEN100MB7225.zip[Password Settings] (1111)空白ワールド926B17/05/08(月),00:09:06empty1.zipUnlimited
GEN100MB7224.zip[Password Settings] ArmoriserVer4セット、PASS111132KB17/05/07(日),23:33:47Armorizer04.zipUnlimited
GEN100MB7223.zip[Password Settings] sg16.8MB17/05/07(日),23:01:483564sogawa56su4.zipUnlimited
GEN100MB7222.7z[Password Settings] 8.1MB17/05/07(日),21:49:4112.7zUnlimited
GEN100MB7221.7z[Password Settings] 9.2MB17/05/07(日),21:45:1511.7zUnlimited
GEN100MB7220.7z[Password Settings] 7.4MB17/05/07(日),21:31:0210.7zUnlimited
GEN100MB7219.zip[Password Settings] Vantageのハンガー(武器持ち替え)搭載型です15KB17/05/07(日),15:36:16Vantage ハンガー搭載型.zipUnlimited
GEN100MB7217.7z[Password Settings] 21.9MB17/05/07(日),12:04:33KITCHEN CABINETS.7zUnlimited
GEN100MB7216.zip[Password Settings] 119KB17/05/07(日),11:27:21PAKFA.zip1回
GEN100MB7215.7z[Password Settings] 16.5MB17/05/07(日),08:48:137to9.7zUnlimited
GEN100MB7214.7z[Password Settings] 11.8MB17/05/07(日),08:42:004to6.7zUnlimited
GEN100MB7213.7z[Password Settings] secrets of beans, vol. 3910.3MB17/05/07(日),08:38:30bx-039.7zUnlimited
GEN100MB7212.7z[Password Settings] 3.6MB17/05/07(日),08:34:511to3.7zUnlimited
GEN100MB7211.7z[Password Settings] 840KB17/05/07(日),07:23:05tblit.7zUnlimited
GEN100MB7210.zip[Password Settings] sg14.9MB17/05/06(土),21:23:593564sogawa56su4.zipUnlimited
GEN100MB7209.zip[Password Settings] 受け渡し45KB17/05/06(土),20:45:16For YSSS.zip1回
GEN100MB7208.7z[Password Settings] 52.6MB17/05/06(土),07:48:45BGT.7zUnlimited
GEN100MB7207.zip[Password Settings] Mcn teambattle用 pass 1111110KB17/05/06(土),01:12:35TB_Stages.zipUnlimited
GEN100MB7206.zip[Password Settings] ArmoriserVer3セット、PASS111132KB17/05/06(土),00:02:42Armorizer03S.zipUnlimited
GEN100MB7204.zip[Password Settings] sg10.5MB17/05/05(金),21:40:473564sogawa56su4.zipUnlimited
GEN100MB7203.zip[Password Settings] ArmoriserVer2セット、PASS111131KB17/05/05(金),20:44:46Armorizer02.zipUnlimited
GEN100MB7201.png[Password Settings] 5B17/05/05(金),15:53:05test.pngUnlimited
GEN100MB7200.zip[Password Settings] Miniman7KB17/05/05(金),12:23:22Miniman.zip1回
GEN100MB7199.zip[Password Settings] いろいろ849KB17/05/05(金),08:53:18いろいろ.zip1回
GEN100MB7198.zip[Password Settings] 23KB17/05/05(金),00:05:17HoverDrone.zipUnlimited
GEN100MB7197.zip[Password Settings] for Exchange987KB17/05/05(金),00:01:03RWF2.0テスト2回目.zip1回
GEN100MB7196.zip[Password Settings] 4KB17/05/05(金),00:00:07ListTest2.zipUnlimited
GEN100MB7195.zip[Password Settings] 皆様のご要望にお応えして、将軍様がアップローダーに!4KB17/05/04(木),23:34:56飛翔体.zipUnlimited
GEN100MB7194.zip[Password Settings] パスは聞いてね46KB17/05/04(木),22:01:13天麩羅ロボ.zipUnlimited
GEN100MB7193.zip[Password Settings] 46KB17/05/04(木),21:51:28個人的配布.zip1回
GEN100MB7192.zip[Password Settings] sg10.6MB17/05/04(木),21:39:343564sogawa56su4.zipUnlimited
GEN100MB7191.zip[Password Settings] Armoriser、操作支援機能付きPASS111113KB17/05/04(木),21:35:50Armorizer01S.zipUnlimited
GEN100MB7190.zip[Password Settings] PAS:1111 WW1のドイツ爆撃機修正版10KB17/05/04(木),19:55:25GothaG.4 ver.2.zipUnlimited
GEN100MB7189.zip[Password Settings] マイルドに戦いたい人向けPASS111112KB17/05/04(木),18:36:24Armorizer01.zipUnlimited
GEN100MB7187.zip[Password Settings] フジヤマニンジャアイドル12KB17/05/04(木),16:54:57VantageQz1t2bP.zipUnlimited
GEN100MB7186.7z[Password Settings] ytc991.9MB17/05/04(木),04:57:16ytc9.7zUnlimited
GEN100MB7185.zip[Password Settings] [1111]SRサッカー用ワールド(バグあり)8.9MB17/05/04(木),00:33:40SRサッカー用ワールド(バグあり).zipUnlimited
GEN100MB7184.zip[Password Settings] RWFユーザー名登録済み3KB17/05/03(水),23:09:11gizadora.zip1回
GEN100MB7183.zip[Password Settings] sg18.8MB17/05/03(水),22:34:373564sogawa56su4.zipUnlimited
GEN100MB7182.zip[Password Settings] RWFテスト用修正986KB17/05/03(水),22:34:25RWF2.0テスト修正.zip10回
GEN100MB7180.7z[Password Settings] ytc496.9MB17/05/03(水),06:23:04ytc4.7zUnlimited
GEN100MB7179.zip[Password Settings] sg9.5MB17/05/02(火),22:27:423564sogawa56su4.zipUnlimited
GEN100MB7178.gif[Password Settings] 36.4MB17/05/02(火),15:56:302.gifUnlimited
GEN100MB7177.gif[Password Settings] 37.4MB17/05/02(火),15:55:591.gifUnlimited
GEN100MB7176.7z[Password Settings] 27.0MB17/05/02(火),11:14:3111.7zUnlimited
GEN100MB7175.gif[Password Settings] 36.1MB17/05/02(火),09:33:14花王 プリマヴィスタ 皮脂くずれ防止化粧下地 CM 石原さとみ.gifUnlimited
GEN100MB7174.7z[Password Settings] smelly type of cheese51.9MB17/05/02(火),09:10:25gorgonzola.7zUnlimited
GEN100MB7172.zip[Password Settings] 29.8MB17/05/01(月),23:49:34SOL20170501.zipUnlimited
GEN100MB7171.zip[Password Settings] sg19.5MB17/05/01(月),22:24:583564sogawa56su4.zipUnlimited
GEN100MB7170.zip[Password Settings] StratoTest1KB17/05/01(月),21:05:43StratoTest.zipUnlimited
GEN100MB7169.rar[Password Settings] 95.9MB17/05/01(月),16:10:361234.rarUnlimited
GEN100MB7168.rar[Password Settings] 95.9MB17/05/01(月),15:59:161234.rarUnlimited
GEN100MB7167.7z[Password Settings] a11bcibos75.7MB17/05/01(月),06:51:22a11bcibos.7zUnlimited
GEN100MB7166.zip[Password Settings] sg18.2MB17/04/30(日),23:02:493564sogawa56su4.zipUnlimited
GEN100MB7165.7z[Password Settings] 42.0MB17/04/30(日),21:26:4887.7zUnlimited
GEN100MB7164.7z[Password Settings] 33.9MB17/04/30(日),21:10:2279.7zUnlimited
GEN100MB7163.7z[Password Settings] 19.1MB17/04/30(日),19:56:26matimati.7zUnlimited
GEN100MB7162.zip[Password Settings] 13KB17/04/30(日),17:51:42YF-27γルシファーWIP.zip1回
GEN100MB7161.gif[Password Settings] 43.5MB17/04/30(日),09:40:042.gifUnlimited
GEN100MB7160.gif[Password Settings] 48.5MB17/04/30(日),09:39:281.gifUnlimited
GEN100MB7159.zip[Password Settings] T-90M+Texture ps1111204KB17/04/30(日),00:58:26T90m+texture.zipUnlimited
GEN100MB7157.zip[Password Settings] 76KB17/04/30(日),00:30:23ZBB-1 & ZFS-1.zipUnlimited
GEN100MB7155.zip[Password Settings] sg9.3MB17/04/29(土),22:46:583564sogawa56su4.zipUnlimited
GEN100MB7154.zip[Password Settings] 劇団四季、夏の王手9KB17/04/29(土),21:08:11Vantage Qz1t1.zipUnlimited
GEN100MB7152.zip[Password Settings] 面倒くさがりの為のスラ1KB17/04/29(土),17:49:07ポン置きスラ.zipUnlimited
GEN100MB7151.zip[Password Settings] sg14.0MB17/04/29(土),00:54:463564sogawa56su4.zipUnlimited
GEN100MB7150.zip[Password Settings] 22KB17/04/28(金),23:14:02イージス艦素材(船体のみ).zip1回
GEN100MB7149.zip[Password Settings] 49KB17/04/28(金),22:26:58あきづき型護衛艦 製作中.zip1回
GEN100MB7148.zip[Password Settings] 29KB17/04/28(金),20:29:04SLAVE WRAITH.zipUnlimited
GEN100MB7147.7z[Password Settings] 85.3MB17/04/28(金),17:23:08hothothot.7zUnlimited
GEN100MB7146.7z[Password Settings] 9.5MB17/04/28(金),16:38:09inspection2.7zUnlimited
GEN100MB7145.7z[Password Settings] 23.7MB17/04/28(金),15:39:35inspection.7zUnlimited
GEN100MB7144.jpg[Password Settings] 115KB17/04/28(金),13:58:20白石ひとみ 現在 201305 ad268ca1.jpgUnlimited
GEN100MB7143.rar[Password Settings] Drawings & Artwork16.9MB17/04/28(金),10:49:20Dragon Ball Z Artwork.rarUnlimited
GEN100MB7142.7z[Password Settings] bpvc4883.4MB17/04/28(金),02:18:09bpvc48.7zUnlimited
GEN100MB7141.rar[Password Settings] 28.4MB17/04/27(木),23:31:08FL.rarUnlimited
GEN100MB7140.7z[Password Settings] vcx, vol.111.4MB17/04/27(木),23:06:21vcx1.7zUnlimited
GEN100MB7139.zip[Password Settings] テスト公開!機動少女(モブ)33KB17/04/27(木),23:02:42配布物.zipUnlimited
GEN100MB7138.zip[Password Settings] sg12.7MB17/04/27(木),22:37:323564sogawa56su4.zipUnlimited
GEN100MB7137.7z[Password Settings] 59.8MB17/04/27(木),17:58:02hf710.7zUnlimited
GEN100MB7136.7z[Password Settings] 11.2MB17/04/27(木),16:31:28jeremy1.7zUnlimited
GEN100MB7135.7z[Password Settings] 69.3MB17/04/27(木),15:44:26adrian.7zUnlimited
GEN100MB7134.zip[Password Settings] いろいろ45KB17/04/26(水),23:19:02いろいろ.zip1回
GEN100MB7133.zip[Password Settings] sg12.5MB17/04/26(水),21:42:123564sogawa56su4.zipUnlimited
GEN100MB7132.zip[Password Settings] 13KB17/04/26(水),21:14:20forIMO.zipUnlimited
GEN100MB7131.rar[Password Settings] 9.6MB17/04/26(水),16:17:013 Clips.rarUnlimited
GEN100MB7130.7z[Password Settings] 1.1MB17/04/26(水),11:39:05656478124578.7zUnlimited
GEN100MB7129.zip[Password Settings] sg13.7MB17/04/26(水),02:19:543564sogawa56su4.zipUnlimited
GEN100MB7128.zip[Password Settings] エイム用関節1KB17/04/26(水),01:05:34エイム用関節.zip1回
GEN100MB7127.zip[Password Settings] 10.8MB17/04/25(火),21:18:481813138.zipUnlimited
GEN100MB7126.7z[Password Settings] Snapboy.7z304KB17/04/25(火),21:14:26snapboy.7zUnlimited
GEN100MB7125.zip[Password Settings] ミサイルを取り入れたMS戦暫定レギュ10KB17/04/25(火),15:53:52MS戦レギュ2.2.zipUnlimited
GEN100MB7124.7z[Password Settings] 24.4MB17/04/25(火),12:01:2704.7zUnlimited
GEN100MB7123.7z[Password Settings] 41.6MB17/04/25(火),08:47:04bedtimestory.7zUnlimited
GEN100MB7122.7z[Password Settings] 63.2MB17/04/25(火),07:26:05dalmatian003.7zUnlimited
GEN100MB7121.7z[Password Settings] 39.5MB17/04/25(火),07:16:32rise.7zUnlimited
GEN100MB7120.7z[Password Settings] bread recipes 15819.4MB17/04/25(火),06:48:01bravo158.7zUnlimited
GEN100MB7119.7z[Password Settings] bread recipes 15972.8MB17/04/25(火),06:34:04bravo159.7zUnlimited
GEN100MB7118.7z[Password Settings] c1298lbl72.7MB17/04/25(火),04:26:57c1298lbl.7zUnlimited
GEN100MB7117.zip[Password Settings] 30.3MB17/04/24(月),23:32:42SOL20170424.zipUnlimited
GEN100MB7116.zip[Password Settings] sg21.4MB17/04/24(月),22:57:343564sogawa56su.zipUnlimited
GEN100MB7110.zip[Password Settings] ひったんへエレベーター構造1KB17/04/24(月),19:12:41ひったんへ.zip1回
GEN100MB7109.gif[Password Settings] 42.7MB17/04/24(月),11:58:440.gifUnlimited
GEN100MB7108.zip[Password Settings] いろいろ765KB17/04/24(月),08:00:24いろいろ.zip1回
GEN100MB7106.rar[Password Settings] 5.0MB17/04/23(日),15:54:51the funny video.rarUnlimited
GEN100MB7105.zip[Password Settings] AT オーデルバックラー Pass111127KB17/04/23(日),13:53:09X-ATH-11TC.zipUnlimited
GEN100MB7104.rar[Password Settings] 2.8MB17/04/23(日),04:03:15dd.rarUnlimited
GEN100MB7103.zip[Password Settings] 2.1MB17/04/22(土),23:50:59バックアップ Ver0.5.zipUnlimited
GEN100MB7102.zip[Password Settings] スレイヴくん ぱすはいつもの11KB17/04/22(土),23:18:03スレイヴ.zipUnlimited
GEN100MB7101.zip[Password Settings] sg22.5MB17/04/22(土),21:42:043564sogawa56su4.zipUnlimited
GEN100MB7099.7z[Password Settings] いろいろ897KB17/04/22(土),21:07:25いろいろ.7zUnlimited
GEN100MB7098.gif[Password Settings] 34.6MB17/04/22(土),09:58:03コーセー エスプリーク 北川景子 CM「さらりきめ美肌」篇 15秒.gifUnlimited
GEN100MB7097.zip[Password Settings] 報告用15KB17/04/22(土),03:41:01渡し.zipUnlimited
GEN100MB7096.png[Password Settings] HectorType HowToAim[1111]1.5MB17/04/22(土),02:22:01HTM3.pngUnlimited
GEN100MB7095.zip[Password Settings] CB他無人機配布 パス1111 Nekocat752KB17/04/22(土),02:07:26CBシリーズ配布.zipUnlimited
GEN100MB7094.zip[Password Settings] sg11.8MB17/04/22(土),01:11:043564sogawa564m.zipUnlimited

Used 35.2GB
No. パス